SL-8 DEB

Satellite information

Favourite Embed

Satellite Type and Status

DEBRISIN ORBIT

Key statistics

Satellite SL-8 DEB at a glance.

Uptime

12686

Days in orbit

Revolutions

≈ 12.2

Per day

Orbit

LEO

Low Earth Orbit

Inclination

74.0

Latest

Satellite identification and parameters

Extended collection of information and parameters for SL-8 DEB.

Object identification

Identified? True

Debris? True

Object name: SL-8 DEB

International designator: 1991-009M

Object number (NORAD): 21115

Object ID (CCSDS): 21115

Country: COMMONWEALTH OF INDEPENDENT STATES (CIS)

Current information (Y/N): Y

RCS size: SMALL

Orbital parameters

Period: 118.334 minutes

Inclination: 74.0381 deg

SMA: 7984.211 km

Apoapsis: 1752.023 km

Periapsis: 1460.129 km

RAAN: 224.405 deg

Eccentricy: 0.01827945

Argument of periapsis: 5.6716 deg

Mean anomaly: 22.1764 deg

Mean motion: 12.16899563 rev/day

Mean motion (dot): 0.00000024 rev/day2

B* drag term: 0.00036633074 1/REarth

Two-line elements (TLE)

Creation date: Oct. 30, 2025, 3:32 a.m.

Reference frame: TEME

Reference center: EARTH

Epoch: Oct. 29, 2025, 6:50 p.m. UTC

TLE line 0: 0 SL-8 DEB

TLE line 1: 1 21115U 91009M 25302.78501516 .00000024 00000-0 36633-3 0 9994

TLE line 2: 2 21115 74.0381 224.4050 0182795 5.6716 22.1764 12.16899563541157

Live tracking on map

Real-time ground track for satellite SL-8 DEB.

In-orbit conjunctions

A list of the most updated potential collisions computed for object SL-8 DEB.

Target Orbit TCA Probability of collision Miss distance Type
SL-14 R/B LEO 2024-12-11 13:33:38 0.001071791 121.0 (m) ROCKET BODY

Associated space launch

Military communications satellites

SL-8 DEB was lifted into orbit during the mission ‘Kosmos-3M | Strela-1M 353-360’, on board a Kosmos-3M space rocket.

The launch took place on Feb. 12, 1991, 2:44 a.m. from 133/3 (133L).

For more information about the launch, click the button.

Launch to space Kosmos-3M | Strela-1M 353-360
Kosmos-3M | Strela-1M 353-360

Agency: N/A

Status: Launch Successful

Launch date: Feb. 12, 1991, 2:44 a.m. UTC

Rocket: Kosmos-3M

Launch pad: 133/3 (133L)

Location: Plesetsk Cosmodrome, Russian Federation

...

Latest news about this satellite

There are no fresh news available about this satellite. Check back as we update our databases every day.


Newsletter sign-up

Weekly statistics, charts and insights to help you stay on top of the space industry.